Tracking 19176 objects as of 26-May-2018
HD Live streaming from Space Station
objects crossing your sky now

USA 224

Track USA 224 now!
10-day predictions
USA 224 is classified as:


NORAD ID: 37348
Int'l Code: 2011-002A
Perigee: 269.6 km
Apogee: 1,016.7 km
Inclination: 97.9 °
Period: 97.4 minutes
Semi major axis: 7014 km
RCS: Unknown
Launch date: January 20, 2011
Source: United States (US)
Launch site: AIR FORCE WESTERN TEST RANGE (AFWTR)

USA 224 is a secret satellite serving the U.S. National Reconnaissance Office.
aabbcc
Your satellite tracking list
Your tracking list is empty




NASA's NSSDC Master Catalog

Two Line Element Set (TLE):
1 37348U 11002A   18143.95684550 0.00010500  00000-0  10120-3 0    04
2 37348  97.8879 255.6416 0532604 190.3282 169.6716 14.77882901    02
Source of the keplerian elements: McCants